Track GLOBALSTAR M044 now! 10-day predictions GLOBALSTAR M044 is classified as:
1 25678U 99019C 22180.49479213 -.00000051 00000-0 46296-3 0 9995 2 25678 51.9991 23.7880 0006998 107.4137 259.6206 11.90209212 42268